Regional Weather Roundup
Issued by NWS

Home | Current Version | Previous Version | Graphics & Text | Print | Product List | Glossary On
Versions: 1 2 3 4 5 6 7 8 9 10 11 12 13 14 15 16 17 18 19 20 21 22 23 24 25 26 27 28 29 30 31 32 33 34 35 36 37 38 39 40 41 42 43 44 45 46 47 48 49 50
000
ASUS44 KMEG 031600
RWRTN
TENNESSEE HOURLY STATE WEATHER ROUNDUP
NATIONAL WEATHER SERVICE MEMPHIS TN
1100 AM CDT TUE MAY 03 2016

TNZ002-004-019-021-049-052-054-088>092-031700-
WEST TENNESSEE

CITY           SKY/WX    TMP DP  RH WIND       PRES   REMARKS
MEMPHIS INTL   PTSUNNY   65  51  60 VRB6      30.04S
NWS MEMPHIS      N/A     62 N/A N/A MISG        N/A
JACKSON        CLOUDY    61  51  70 N7        30.03S
DYERSBURG      CLOUDY    59  48  67 N5          N/A
UNION CITY     CLOUDY    57  52  82 N5        30.03S
LEXINGTON      CLOUDY    63  52  67 NW7       30.01S
$$

TNZ008-025-027-028-033-062-065-066-031700-
NORTH MIDDLE TENNESSEE

CITY           SKY/WX    TMP DP  RH WIND       PRES   REMARKS
NASHVILLE      CLOUDY    62  49  62 VRB6      30.00R
CLARKSVILLE    CLOUDY    60  49  66 NW10      30.00S
COOKEVILLE     PTSUNNY   64  52  63 VRB3      29.95F
CROSSVILLE     PTSUNNY   64  49  57 W9        29.96S
$$

TNZ061-075-076-078-094-096-097-031700-
SOUTH MIDDLE TENNESSEE

CITY           SKY/WX    TMP DP  RH WIND       PRES   REMARKS
WINCHESTER     PTSUNNY   64  52  63 W5        29.97F
MCMINNVILLE    PTSUNNY   63  52  67 W7        29.97S
COLUMBIA       CLOUDY    63  57  82 VRB7      29.99S
SHELBYVILLE    PTSUNNY   64  54  68 VRB5      29.99S
$$

TNZ017-018-042-046-047-031700-
NORTHEAST TENNESSEE

CITY           SKY/WX    TMP DP  RH WIND       PRES   REMARKS
TRI CITIES     CLOUDY    65  56  72 W9        29.89S
$$

TNZ012-013-036-069-073-074-031700-
CENTRAL EAST TENNESSEE

CITY           SKY/WX    TMP DP  RH WIND       PRES   REMARKS
KNOXVILLE      CLOUDY    64  57  77 SW3       29.92R
OAK RIDGE      CLOUDY    66  54  65 VRB5      29.93R
GATLINBURG     CLOUDY    61  57  88 SW7       29.92S
$$

TNZ083-085-099-031700-
SOUTHEAST TENNESSEE

CITY           SKY/WX    TMP DP  RH WIND       PRES   REMARKS
CHATTANOOGA    PTSUNNY   67  55  65 VRB3      29.94S
$$

SKY/WX REPORTED AS FAIR MEANS FEW OR NO CLOUDS BELOW
12 THOUSAND FEET.





USA.gov is the U.S. government's official web portal to all federal, state and local government web resources and services.